Nome, AK

6:02 PM AKDT on June 28, 2017 (GMT -0800)
Nome

Weather History for PAOM - September, 2013

Change the Weather History Date:

Friday, September 20, 2013

  Actual Average Record
Temperature  
Mean Temperature 30 °F 41 °F  
Max Temperature 37 °F 47 °F 64 °F (1995)
Min Temperature 22 °F 35 °F 17 °F (1975)
Degree Days  
Heating Degree Days 35 24  
Month to date heating degree days 439 401  
Since 1 July heating degree days 1213 1261  
Cooling Degree Days 0 0  
Month to date cooling degree days 0 0  
Year to date cooling degree days 7 3  
Moisture  
Dew Point 21 °F    
Average Humidity 0    
Maximum Humidity 0    
Minimum Humidity 0    
Precipitation  
Precipitation 0.00 in 0.07 in 1.18 in (1955)
Month to date precipitation 1.77 1.73  
Year to date precipitation 14.88 12.18  
Snow  
Snow 0.00 in 0.00 in 3.00 in (1919)
Month to date snowfall T 0.2  
Since 1 July snowfall T 0.2  
Since 1 September snowfall 0.0 0.2  
Snow Depth 0.00 in    
Sea Level Pressure  
Sea Level Pressure 29.49 in    
Wind  
Wind Speed 5 mph (North)    
Max Wind Speed 13 mph    
Max Gust Speed 17 mph    
Visibility 10 miles    
Events      
T = Trace of Precipitation, MM = Missing Value Source: NWS Daily Summary

Daily Weather History Graph

Daily Weather History Graph

Search for Another Location

Airport or City:

Trip Planner

Search our weather history database for the weather conditions in past years. The results will help you decide how hot, cold, wet, or windy it might be!

Date:

Astronomy

Sep. 20, 2013 Rise Set
Actual Time 8:40 AM AKDT 9:08 PM AKDT
Civil Twilight 7:51 AM AKDT 9:56 PM AKDT
Nautical Twilight 6:51 AM AKDT 10:56 PM AKDT
Astronomical Twilight 5:40 AM AKDT 12:05 AM AKDT
Moon 8:53 PM AKDT (9/20) 10:56 AM AKDT (9/20)
Length of Visible Light 14h 05m
Length of Day
12h 27m
Full, 98% of the Moon is Illuminated
Sep 20
Full
Sep 26
Last Quarter
Oct 4
New
Oct 11
First Quarter
Oct 18
Full

Hourly Weather History & Observations

Time (AKDT) Temp. Windchill Dew Point Humidity Pressure Visibility Wind Dir Wind Speed Gust Speed Precip Events Conditions
12:53 AM 30.0 °F 21.7 °F 23.0 °F 75% 29.68 in 10.0 mi North 9.2 mph - N/A   Clear
1:53 AM 28.9 °F 22.8 °F 21.9 °F 75% 29.67 in 10.0 mi NNW 5.8 mph - N/A   Partly Cloudy
2:53 AM 28.9 °F 22.8 °F 21.9 °F 75% 29.66 in 10.0 mi North 5.8 mph - N/A   Overcast
3:53 AM 30.9 °F 26.2 °F 21.9 °F 69% 29.64 in 10.0 mi North 4.6 mph - N/A   Overcast
4:53 AM 30.0 °F 25.2 °F 21.9 °F 72% 29.63 in 10.0 mi North 4.6 mph - N/A   Overcast
5:53 AM 27.0 °F - 21.0 °F 78% 29.61 in 10.0 mi Calm Calm - N/A   Overcast
6:53 AM 24.1 °F - 21.0 °F 88% 29.60 in 10.0 mi Calm Calm - N/A   Scattered Clouds
7:53 AM 23.0 °F - 19.0 °F 85% 29.57 in 10.0 mi Calm Calm - N/A   Scattered Clouds
8:53 AM 24.1 °F 18.2 °F 19.0 °F 81% 29.55 in 10.0 mi NNW 4.6 mph - N/A   Scattered Clouds
9:53 AM 25.0 °F - 19.9 °F 81% 29.53 in 10.0 mi Calm Calm - N/A   Scattered Clouds
10:53 AM 28.0 °F 24.2 °F 21.9 °F 78% 29.51 in 10.0 mi North 3.5 mph - N/A   Scattered Clouds
11:53 AM 33.1 °F 27.7 °F 21.0 °F 61% 29.49 in 10.0 mi NE 5.8 mph - N/A   Overcast
12:53 PM 34.0 °F 29.8 °F 19.0 °F 54% 29.46 in 10.0 mi East 4.6 mph - N/A   Mostly Cloudy
1:53 PM 35.1 °F 27.9 °F 19.9 °F 54% 29.44 in 10.0 mi NNE 9.2 mph - N/A   Mostly Cloudy
2:53 PM 36.0 °F 31.1 °F 19.0 °F 50% 29.42 in 10.0 mi NNE 5.8 mph - N/A   Overcast
3:53 PM 37.0 °F 29.3 °F 19.9 °F 50% 29.40 in 10.0 mi NNE 11.5 mph - N/A   Overcast
4:53 PM 37.0 °F 34.5 °F 19.9 °F 50% 29.38 in 10.0 mi NE 3.5 mph - N/A   Overcast
5:53 PM 37.0 °F 31.6 °F 21.0 °F 52% 29.37 in 10.0 mi NE 6.9 mph - N/A   Overcast
6:53 PM 37.0 °F 31.0 °F 21.0 °F 52% 29.35 in 10.0 mi NNE 8.1 mph - N/A   Overcast
7:53 PM 36.0 °F 30.3 °F 21.0 °F 55% 29.34 in 10.0 mi North 6.9 mph - N/A   Overcast
8:53 PM 36.0 °F 32.1 °F 21.0 °F 55% 29.33 in 10.0 mi North 4.6 mph - N/A   Overcast
9:53 PM 35.1 °F 31.0 °F 21.9 °F 59% 29.33 in 10.0 mi North 4.6 mph - N/A   Overcast
10:53 PM 34.0 °F 28.8 °F 23.0 °F 64% 29.32 in 10.0 mi NNW 5.8 mph - N/A   Overcast
11:53 PM 33.1 °F 28.7 °F 21.9 °F 64% 29.32 in 10.0 mi NNW 4.6 mph - N/A   Overcast